Weather WX

World > North America > United States > Missouri

Grandin, Missouri Regional Weather

Lat: 36.83N, Lon: 90.82W
Wx Zone: MOZ107
Warning FLW WEATHER ALERT - (More Info. Click Here) Warning
Feedback

Grandin, MO Regional Weather

Expires:201906201200;;781398
ASUS43 KLSX 201107
RWRMO 

WEATHER SUMMARY FOR MISSOURI
NATIONAL WEATHER SERVICE SPRINGFIELD MO
600 AM CDT THU JUN 20 2019

NOTE: "FAIR" INDICATES FEW OR NO CLOUDS BELOW 12,000 FEET WITH NO
       SIGNIFICANT WEATHER AND/OR OBSTRUCTIONS TO VISIBILITY.
       CURRENT SKY AND/OR WEATHER CONDITIONS ARE NOT AVAILABLE FOR
       CHILLICOTHE AND FARMINGTON.


MOZ072>076-082>087-097>100-106>115-201200-
...SOUTH CENTRAL AND SOUTHEAST MISSOURI...
  
CITY           SKY/WX    TMP DP  RH WIND       PRES   REMARKS
CAPE GIRARDEAU FAIR      69  66  90 SW8       29.69R                  
FARMINGTON     CLOUDY    66  63  88 NW8       29.73R                  
POPLAR BLUFF   FAIR      69  68  96 SW3       29.71R                  
WEST PLAINS    FOG       64  62  93 SW3       29.77R VSB 1/4          
                                       
$$
  

SKY/WX - Weather  TMP - Temperature  DP - Dew Point  RH - Relative Humidity
WIND - Wind Direction/Speed PRES - Barometric Pressure VSB - Visibility
WCI - Wind Chill Index E13G22 Wind - East Wind 13 mph/Gusts of 22 mph